Flag for United Kingdom Weather past 2 weeks in Canvey Island, England, United Kingdom

Now
34 °F

Clear.


Feels Like: 26 °F
Forecast: 30 / 40 °F
Wind: 10 mph from North

Location: Southend Airport-On-Sea

Current Time: Dec 28, 2014 at 7:26:33 AM

Latest Report: Dec 28, 2014 at 6:50 AM


Visibility: 10 mi

Pressure: 30.21 "Hg

Humidity: 81%

Dew point: 28 °F

Location of Canvey IslandLocation

Historic Weather in Canvey Island — Graph

°F

Canvey Island temperature yesterday

Maximum temperature yesterday: 48 °F (at 12:50 AM)
Minimum temperature yesterday: 36 °F (at 5:50 PM)
Average temperature yesterday: 38 °F

Past Weeks' High & Low Weather Summary

 TemperatureHumidityPressure
High57 °F (Dec 18, 10:20 AM)94% (Dec 14, 11:20 PM)30.45 "Hg (Dec 14, 11:20 PM)
Low28 °F (Dec 13, 6:50 PM)53% (Dec 24, 1:50 PM)29.39 "Hg (Dec 27, 1:50 AM)
Average46 °F79%29.96 "Hg
* Reported Dec 13 6:20 AM — Dec 28 6:20 AM, Canvey Island, Weather by CustomWeather, © 2014

Note: Actual official high and low records may vary slightly from our data, if they occured in-between our weather recording intervals... More about our weather records

Advertising

Canvey Island weather history for previous 24 hours

 ConditionsComfort  
Time TempWeatherWind HumidityBarometerVisibility
6:20 AM
Dec 28
32 °FClear.13 mph80%30.21 "Hg10 mi
5:50 AM34 °FClear.12 mph81%30.18 "Hg10 mi
5:20 AM34 °FPassing clouds.13 mph81%30.15 "HgN/A
4:50 AM34 °FPassing clouds.12 mph81%30.15 "HgN/A
3:50 AM36 °FPassing clouds.12 mph75%30.12 "HgN/A
2:50 AM36 °FPassing clouds.10 mph75%30.04 "HgN/A
1:50 AM36 °FPassing clouds.10 mph75%30.01 "HgN/A
12:50 AM36 °FPassing clouds.13 mph81%29.98 "HgN/A
11:50 PM
Dec 27
36 °FClear.13 mph81%29.95 "Hg10 mi
11:20 PM36 °FPassing clouds.13 mph81%29.92 "HgN/A
10:50 PM36 °FPassing clouds.13 mph87%29.89 "HgN/A
10:20 PM36 °FScattered showers. Passing clouds.14 mph81%29.89 "Hg6 mi
9:50 PM36 °FClear.12 mph81%29.86 "Hg10 mi
9:20 PM36 °FClear.13 mph87%29.86 "Hg10 mi
8:50 PM36 °FClear.12 mph87%29.83 "Hg10 mi
8:20 PM36 °FPassing clouds.13 mph87%29.83 "HgN/A
7:50 PM36 °FPassing clouds.12 mph87%29.80 "HgN/A
7:20 PM36 °FPassing clouds.12 mph87%29.80 "HgN/A
6:20 PM36 °FPassing clouds.12 mph87%29.77 "HgN/A
5:50 PM36 °FPassing clouds.12 mph87%29.77 "HgN/A
5:20 PM37 °FPassing clouds.12 mph81%29.74 "HgN/A
4:50 PM37 °FPassing clouds.13 mph81%29.74 "HgN/A
4:20 PM37 °FPassing clouds.13 mph81%29.74 "HgN/A
3:50 PM37 °FScattered clouds.13 mph87%29.74 "HgN/A
3:20 PM37 °FScattered clouds.12 mph87%29.71 "HgN/A
2:50 PM39 °FPassing clouds.14 mph81%29.71 "HgN/A
2:20 PM37 °FPassing clouds.14 mph81%29.71 "HgN/A
1:50 PM39 °FPassing clouds.14 mph81%29.71 "HgN/A
1:20 PM41 °FScattered clouds.15 mph76%29.71 "HgN/A
12:50 PM41 °FBroken clouds.17 mph76%29.71 "HgN/A
12:20 PM39 °FScattered clouds.14 mph81%29.71 "HgN/A
11:50 AM39 °FBroken clouds.15 mph81%29.71 "HgN/A
11:20 AM39 °FBroken clouds.14 mph87%29.71 "HgN/A
10:50 AM37 °FPartly sunny.15 mph87%29.71 "HgN/A
10:20 AM37 °FPartly sunny.17 mph87%29.68 "HgN/A
9:50 AM37 °FPartly sunny.18 mph87%29.68 "HgN/A
9:20 AM37 °FPartly sunny.17 mph87%29.68 "HgN/A
8:50 AM37 °FPartly sunny.22 mph87%29.65 "HgN/A
8:20 AM37 °FPartly sunny.22 mph87%29.65 "HgN/A
7:50 AM37 °FPassing clouds.22 mph87%29.62 "HgN/A
7:20 AM39 °FPassing clouds.22 mph81%29.62 "HgN/A
Weather by CustomWeather, © 2014

See weather overviewHow to use our weather pages